Simultaneous Nadir Overpasses (SNOs) Predictions

Prediction of SNOs between METOP-A and NPP Satellite Orbit:

Table of predicted SNOs for the next 14.0 days since TLE Epoch: 5/28/2016
Index Date (METOP-A) Time (METOP-A) Lat,Lon (METOP-A) SZA (METOP-A ) Date (NPP) Time (NPP) Lat,Lon (NPP) SZA (NPP ) Distance(km) Time Diff (sec)
1 05/28/2016 13:30:52 -81.32, 88.72 114.62 05/28/2016 13:30:51 -81.32, 88.72 114.62 0.07 1
2 05/28/2016 14:21:37 81.33,-103.90 65.37 05/28/2016 14:21:36 81.33,-103.90 65.37 0.07 1
3 05/28/2016 15:12:22 -81.32, 63.30 114.63 05/28/2016 15:12:21 -81.32, 63.31 114.63 0.07 1
4 05/28/2016 16:03:07 81.33,-129.32 65.36 05/28/2016 16:03:06 81.33,-129.31 65.36 0.07 1
5 05/28/2016 16:53:52 -81.32, 37.89 114.63 05/28/2016 16:53:51 -81.32, 37.89 114.63 0.07 1
6 05/28/2016 17:44:37 81.33,-154.73 65.36 05/28/2016 17:44:36 81.33,-154.73 65.36 0.07 1
7 05/28/2016 18:35:22 -81.32, 12.47 114.64 05/28/2016 18:35:21 -81.32, 12.48 114.64 0.07 1
8 05/28/2016 19:26:07 81.33, 179.85 65.35 05/28/2016 19:26:06 81.33, 179.85 65.35 0.07 1
9 05/28/2016 20:16:51 -81.32, -12.55 114.70 05/28/2016 20:16:50 -81.32, -12.55 114.70 0.07 1
10 05/28/2016 21:07:37 81.33, 154.43 65.35 05/28/2016 21:07:36 81.33, 154.44 65.35 0.07 1
11 05/28/2016 21:58:21 -81.32, -37.97 114.70 05/28/2016 21:58:20 -81.32, -37.96 114.70 0.07 1
12 05/28/2016 22:49:06 81.33, 129.41 65.29 05/28/2016 22:49:05 81.33, 129.42 65.29 0.07 1
13 05/28/2016 23:39:51 -81.32, -63.38 114.71 05/28/2016 23:39:50 -81.32, -63.38 114.71 0.07 1
14 05/29/2016 00:30:36 81.33, 103.99 65.28 05/29/2016 00:30:35 81.33, 104.00 65.28 0.07 1
15 05/29/2016 01:21:21 -81.32, -88.80 114.71 05/29/2016 01:21:20 -81.32, -88.79 114.71 0.07 1
16 05/29/2016 02:12:06 81.33, 78.58 65.28 05/29/2016 02:12:05 81.33, 78.58 65.28 0.07 1
17 05/29/2016 03:02:51 -81.32,-114.21 114.72 05/29/2016 03:02:50 -81.32,-114.21 114.72 0.07 1
18 05/29/2016 03:53:36 81.33, 53.16 65.27 05/29/2016 03:53:35 81.33, 53.17 65.27 0.07 1
19 05/29/2016 04:44:21 -81.32,-139.63 114.72 05/29/2016 04:44:20 -81.32,-139.62 114.72 0.07 1
20 05/29/2016 05:35:06 81.33, 27.75 65.27 05/29/2016 05:35:05 </
